KC7NGC-B Weather Reports


Display with metric or nautical units.
time (UTC)temp
F
wind
direction
speed
MPH
gust
MPH
rain 1hr
in
rain 24hr
in
rain mn
in
humidity
%
barometer
mb
20260831151620 60 322 2.0 3.0 0.00 0.00 0.00 1 1017.0
20260831150617 60 335 2.0 3.0 0.00 0.00 0.00 1 1016.9
20260831145654 59 340 3.0 4.0 0.00 0.00 0.00 1 1017.0
20260831144631 58 353 3.0 4.0 0.00 0.00 0.00 1 1016.9
20260831143649 58 337 3.0 4.0 0.00 0.00 0.00 1 1016.7
20260831142625 59 320 0.0 2.0 0.00 0.00 0.00 1 1016.6
20260831141621 57 0.0 2.0 0.00 0.00 0.00 1 1016.5
20260831140621 56 279 1.0 2.0 0.00 0.00 0.00 1 1016.6
20260831135635 55 264 1.0 3.0 0.00 0.00 0.00 1 1016.5
20260831134631 55 0.0 1.0 0.00 0.00 0.00 1 1016.6
20260831133629 54 251 4.0 5.0 0.00 0.00 0.00 1 1016.6
20260831132645 53 207 2.0 4.0 0.00 0.00 0.00 1 1016.6
20260831131621 53 221 1.0 2.0 0.00 0.00 0.00 1 1016.5
20260831130618 54 180 2.0 3.0 0.00 0.00 0.00 1 1016.3
20260831125636 54 97 1.0 2.0 0.00 0.00 0.00 1 1016.3
20260831124631 55 295 1.0 3.0 0.00 0.00 0.00 1 1016.4
20260831123628 55 0.0 1.0 0.00 0.00 0.00 1 1016.4
20260831122625 55 276 0.0 1.0 0.00 0.00 0.00 1 1016.3
20260831121641 54 250 1.0 2.0 0.00 0.00 0.00 1 1016.3
20260831120619 55 277 2.0 2.0 0.00 0.00 0.00 1 1016.3
20260831115634 55 218 2.0 3.0 0.00 0.00 0.00 1 1016.3
20260831114652 55 252 1.0 2.0 0.00 0.00 0.00 1 1016.2
20260831113629 56 213 2.0 3.0 0.00 0.00 0.00 1 1016.4
20260831112625 56 238 2.0 2.0 0.00 0.00 0.00 1 1016.4
20260831111622 55 227 1.0 2.0 0.00 0.00 0.00 1 1016.3
20260831110619 55 270 1.0 1.0 0.00 0.00 0.00 1 1016.4
20260831105620 56 246 1.0 2.0 0.00 0.00 0.00 1 1016.4
20260831104617 56 238 1.0 2.0 0.00 0.00 0.00 1 1016.2
20260831103633 56 240 2.0 2.0 0.00 0.00 0.00 1 1016.3
20260831102630 57 217 3.0 3.0 0.00 0.00 0.00 1 1016.3
20260831101627 57 261 2.0 2.0 0.00 0.00 0.00 1 1016.2
20260831100623 56 233 2.0 2.0 0.00 0.00 0.00 1 1016.3
20260831095620 57 226 1.0 2.0 0.00 0.00 0.00 1 1016.6
20260831094656 57 290 1.0 2.0 0.00 0.00 0.00 1 1016.6
20260831093633 57 276 1.0 2.0 0.00 0.00 0.00 1 1016.7
20260831092629 57 283 0.0 1.0 0.00 0.00 0.00 1 1016.8
20260831091626 57 265 1.0 2.0 0.00 0.00 0.00 1 1016.7
20260831090622 58 282 1.0 2.0 0.00 0.00 0.00 1 1016.7
20260831085620 58 268 1.0 2.0 0.00 0.00 0.00 1 1016.8
20260831084636 58 0.0 1.0 0.00 0.00 0.00 1 1016.9
20260831083633 59 265 1.0 2.0 0.00 0.00 0.00 1 1016.9
20260831082630 59 264 1.0 2.0 0.00 0.00 0.00 1 1016.7
20260831081646 59 233 0.0 1.0 0.00 0.00 0.00 1 1016.9
20260831080623 60 210 0.0 1.0 0.00 0.00 0.00 1 1016.8
20260831075619 61 267 1.0 1.0 0.00 0.00 0.00 1 1016.8
20260831074616 60 274 1.0 2.0 0.00 0.00 0.00 1 1016.8
20260831073633 61 263 1.0 2.0 0.00 0.00 0.00 1 1016.9
20260831072629 60 270 1.0 2.0 0.00 0.00 0.00 1 1016.8
20260831071626 60 217 1.0 2.0 0.00 0.00 0.00 1 1016.9
20260831070702 60 222 2.0 2.0 0.00 0.00 0.00 1 1016.6
20260831065621 61 249 2.0 2.0 0.00 0.00 0.00 1 1016.8
20260831064636 61 245 2.0 2.0 0.00 0.00 0.00 1 1016.9
20260831063632 62 227 2.0 2.0 0.00 0.00 0.00 1 1017.0
20260831062629 62 224 0.0 2.0 0.00 0.00 0.00 1 1016.9
20260831061626 62 0.0 0.0 0.00 0.00 0.00 1 1016.9
20260831060622 63 243 2.0 2.0 0.00 0.00 0.00 1 1017.0
20260831055639 63 238 2.0 2.0 0.00 0.00 0.00 1 1016.9
20260831054615 62 249 2.0 2.0 0.00 0.00 0.00 1 1016.9
20260831053632 63 225 1.0 2.0 0.00 0.00 0.00 1 1017.0
20260831052629 63 234 2.0 2.0 0.00 0.00 0.00 1 1017.0
20260831051625 64 239 2.0 2.0 0.00 0.00 0.00 1 1017.1
20260831050622 65 272 0.0 1.0 0.00 0.00 0.00 1 1017.0
20260831045619 65 278 1.0 2.0 0.00 0.00 0.00 1 1017.0
20260831044636 65 261 1.0 2.0 0.00 0.00 0.00 1 1017.2
20260831043633 65 261 1.0 2.0 0.00 0.00 0.00 1 1017.0
20260831042629 65 252 2.0 2.0 0.00 0.00 0.00 1 1017.0
20260831041626 66 234 2.0 2.0 0.00 0.00 0.00 1 1017.1
20260831040623 66 230 1.0 2.0 0.00 0.00 0.00 1 1017.1
20260831035619 67 0.0 1.0 0.00 0.00 0.00 1 1017.1
20260831034616 67 0.0 0.0 0.00 0.00 0.00 1 1017.1
20260831033633 69 0.0 0.0 0.00 0.00 0.00 1 1017.1
20260831032630 69 162 2.0 2.0 0.00 0.00 0.00 1 1016.9
20260831031626 70 174 2.0 2.0 0.00 0.00 0.00 1 1017.0
20260831030623 70 172 1.0 2.0 0.00 0.00 0.00 1 1016.8
20260831025620 71 0.0 0.0 0.00 0.00 0.00 1 1016.8
20260831024616 71 0.0 1.0 0.00 0.00 0.00 1 1016.6
20260831023634 72 110 1.0 2.0 0.00 0.00 0.00 1 1016.6
20260831022630 73 155 1.0 2.0 0.00 0.00 0.00 1 1016.5
20260831021630 74 148 0.0 2.0 0.00 0.00 0.00 1 1016.6
20260831020624 75 61 1.0 3.0 0.00 0.00 0.00 1 1016.6
20260831015621 76 6 2.0 2.0 0.00 0.00 0.00 1 1016.4
20260831014617 76 46 2.0 3.0 0.00 0.00 0.00 1 1016.5
20260831013634 76 71 3.0 5.0 0.00 0.00 0.00 1 1016.5
20260831012651 79 218 1.0 2.0 0.00 0.00 0.00 1 1016.4
20260831011648 77 325 3.0 3.0 0.00 0.00 0.00 1 1016.5
20260831010625 77 1 5.0 6.0 0.00 0.00 0.00 1 1016.5
20260831005621 79 0.0 0.0 0.00 0.00 0.00 1 1016.6
20260831004618 78 350 0.0 2.0 0.00 0.00 0.00 1 1016.6
20260831003635 78 172 2.0 2.0 0.00 0.00 0.00 1 1016.7
20260831002631 79 265 0.0 2.0 0.00 0.00 0.00 1 1016.8
20260831001648 78 219 1.0 3.0 0.00 0.00 0.00 1 1016.9
20260831000625 77 225 2.0 3.0 0.00 0.00 0.00 1 1016.8
20260830235723 76 180 1.0 3.0 0.00 0.00 0.00 1 1016.9
20260830234618 78 9 1.0 2.0 0.00 0.00 0.00 1 1017.0
20260830233634 77 7 1.0 3.0 0.00 0.00 0.00 1 1017.3
20260830232632 77 227 2.0 3.0 0.00 0.00 0.00 1 1017.2
20260830231628 75 0.0 1.0 0.00 0.00 0.00 1 1017.3
20260830230705 75 43 3.0 4.0 0.00 0.00 0.00 1 1017.3
20260830225641 76 272 4.0 5.0 0.00 0.00 0.00 1 1017.4
20260830224618 75 342 1.0 2.0 0.00 0.00 0.00 1 1017.6
20260830223635 75 185 4.0 4.0 0.00 0.00 0.00 1 1017.7
20260830222631 74 6 1.0 2.0 0.00 0.00 0.00 1 1018.1
20260830221628 74 345 1.0 2.0 0.00 0.00 0.00 1 1018.0
20260830220625 73 68 0.0 1.0 0.00 0.00 0.00 1 1018.4
20260830215622 73 110 3.0 4.0 0.00 0.00 0.00 1 1018.5
20260830214618 74 215 5.0 7.0 0.00 0.00 0.00 1 1018.7
20260830213635 73 273 4.0 8.0 0.00 0.00 0.00 1 1018.7
20260830212632 73 242 3.0 6.0 0.00 0.00 0.00 1 1018.8
20260830211629 72 275 3.0 5.0 0.00 0.00 0.00 1 1018.9
20260830210625 72 223 3.0 5.0 0.00 0.00 0.00 1 1018.9
20260830205622 71 213 8.0 9.0 0.00 0.00 0.00 1 1019.0
20260830204618 71 217 7.0 10.0 0.00 0.00 0.00 1 1018.8
20260830203635 71 232 2.0 6.0 0.00 0.00 0.00 1 1019.2
20260830202632 70 261 5.0 7.0 0.00 0.00 0.00 1 1019.2
20260830201628 70 295 2.0 6.0 0.00 0.00 0.00 1 1019.3
20260830200337 70 183 7.0 11.0 0.00 0.00 0.00 1 1019.4
20260830195354 69 214 4.0 6.0 0.00 0.00 0.00 1 1019.4
20260830194330 68 205 4.0 7.0 0.00 0.00 0.00 1 1019.7
20260830193348 67 213 6.0 8.0 0.00 0.00 0.00 1 1019.9
20260830192324 68 184 6.0 9.0 0.00 0.00 0.00 1 1019.8
20260830191321 67 194 7.0 9.0 0.00 0.00 0.00 1 1019.9
20260830190317 67 198 7.0 9.0 0.00 0.00 0.00 1 1019.8
20260830185354 67 209 5.0 8.0 0.00 0.00 0.00 1 1019.7
20260830184351 66 194 5.0 9.0 0.00 0.00 0.00 1 1020.1
20260830183327 65 208 5.0 8.0 0.00 0.00 0.00 1 1020.1
20260830182323 65 205 7.0 14.0 0.00 0.00 0.00 1 1020.0
20260830181320 64 223 10.0 17.0 0.00 0.00 0.00 1 1020.2
20260830180403 63 208 3.0 4.0 0.00 0.00 0.00 1 1020.2
20260830175333 64 204 10.0 15.0 0.00 0.00 0.00 1 1020.1
20260830174330 63 205 9.0 12.0 0.00 0.00 0.00 1 1020.2
20260830173326 62 218 7.0 11.0 0.00 0.00 0.00 1 1020.1
20260830172323 62 199 5.0 9.0 0.00 0.00 0.00 1 1020.3
20260830171319 61 194 9.0 13.0 0.00 0.00 0.00 1 1020.1
20260830170336 62 208 7.0 9.0 0.00 0.00 0.00 1 1020.2
20260830165332 60 204 8.0 15.0 0.00 0.00 0.00 1 1020.3
20260830164329 60 227 7.0 11.0 0.00 0.00 0.00 1 1020.4
20260830163326 60 193 6.0 14.0 0.00 0.00 0.00 1 1020.5
20260830162322 60 221 5.0 8.0 0.00 0.00 0.00 1 1020.5
20260830161324 59 210 8.0 11.0 0.00 0.00 0.00 1 1020.5
20260830160335 59 216 6.0 10.0 0.00 0.00 0.00 1 1020.4
20260830155332 59 204 5.0 9.0 0.00 0.00 0.00 1 1020.4
20260830154329 59 221 9.0 13.0 0.00 0.00 0.00 1 1020.2
20260830153325 58 205 6.0 10.0 0.00 0.00 0.00 1 1020.2
20260830152322 58 209 7.0 9.0 0.00 0.00 0.00 1 1020.2